Regional Weather Roundup
Issued by NWS

Home | Current Version | Previous Version | Graphics & Text | Print | Product List | Glossary On
Versions: 1 2 3 4 5 6 7 8 9 10 11 12 13 14 15 16 17 18 19 20 21 22 23 24 25 26 27 28 29 30 31 32 33 34 35 36 37 38 39 40 41 42 43 44 45 46 47 48 49 50
000
ASUS45 KCYS 210010
RWRWY

WYOMING REGIONAL WEATHER ROUNDUP
NATIONAL WEATHER SERVICE CHEYENNE WY
600 PM MDT MON OCT 20 2014

NOTE:  "FAIR" INDICATES FEW OR NO CLOUDS BELOW 12,000 FEET
WITH NO SIGNIFICANT WEATHER AND/OR OBSTRUCTIONS TO VISIBILITY.

WYZ001-210100-
YELLOWSTONE NATIONAL PARK

CITY           SKY/WX    TMP DP  RH WIND       PRES   REMARKS
LK YELLOWSTONE   N/A     55  32  41 VRB5      30.14S
6HR MIN TEMP:  49; 6HR MAX TEMP:  62;

W YELLOWSTONE  NOT AVBL

$$
WYZ002>013-054>058-071-098>099-210100-
NORTHERN WYOMING

CITY           SKY/WX    TMP DP  RH WIND       PRES   REMARKS
JACKSON        PTCLDY    61  30  31 S5        30.04F
CODY           CLEAR    N/A N/A N/A CALM      29.93S
GREYBULL       CLEAR     73  28  18 CALM      29.87F
6HR MIN TEMP:  60; 6HR MAX TEMP:  77;

WORLAND        CLEAR     71  34  25 CALM      29.88F
6HR MIN TEMP:  62; 6HR MAX TEMP:  78;

SHERIDAN       CLEAR     61  39  44 W6        29.87F
6HR MIN TEMP:  61; 6HR MAX TEMP:  79;

BUFFALO        CLEAR     69  21  16 NW7       29.94S
6HR MIN TEMP:  69; 6HR MAX TEMP:  79;

GILLETTE       CLEAR     69  30  23 S13       29.90F
6HR MIN TEMP:  69; 6HR MAX TEMP:  79;

HULETT         FAIR      70  36  28 S5        29.94
NEWCASTLE      FAIR      64  34  32 MISG      29.95

$$
WYZ014>020-022>026-101>103-210100-
CENTRAL WYOMING

CITY           SKY/WX    TMP DP  RH WIND       PRES   REMARKS
BIG PINEY      PTCLDY    61  30  31 SW9       30.09F
6HR MIN TEMP:  56; 6HR MAX TEMP:  69;

PINEDALE       MOCLDY    61  30  31 CALM      30.10F
DUBOIS         FAIR      59  27  29 W10       30.07S
LANDER         CLEAR     67  31  26 CALM      29.97F
6HR MIN TEMP:  60; 6HR MAX TEMP:  71;

RIVERTON       CLEAR     65  29  25 E6        29.99F
6HR MIN TEMP:  59; 6HR MAX TEMP:  70;

CASPER         CLEAR     67  30  25 SW7       30.00S
6HR MIN TEMP:  67; 6HR MAX TEMP:  75;

DOUGLAS        CLEAR     70  34  26 W3        29.99F
6HR MIN TEMP:  68; 6HR MAX TEMP:  79;


$$
WYZ021-027>030-104>119-210100-
SOUTHERN WYOMING

CITY           SKY/WX    TMP DP  RH WIND       PRES   REMARKS
EVANSTON       PTCLDY    64  31  28 SW9       30.10S
6HR MIN TEMP:  62; 6HR MAX TEMP:  68;

KEMMERER       CLOUDY    64  28  25 S8        30.11F
FORT BRIDGER   MOCLDY    63  33  32 S6        30.12F
ROCK SPRINGS   PTCLDY    64  31  28 SW13      30.09F
6HR MIN TEMP:  56; 6HR MAX TEMP:  68;

DIXON          FAIR      65  35  32 SW8       30.14F
RAWLINS        CLEAR     63  32  31 SW13      30.12S
6HR MIN TEMP:  63; 6HR MAX TEMP:  69;

SARATOGA       FAIR      63  32  31 SW10      30.14F
LARAMIE        PTCLDY    57  35  43 S6        30.14S
6HR MIN TEMP:  57; 6HR MAX TEMP:  69;

CHEYENNE       CLEAR     65  34  31 S7        30.09F
6HR MIN TEMP:  65; 6HR MAX TEMP:  72;

TORRINGTON     CLEAR     70  36  28 S10       29.97S
6HR MIN TEMP:  69; 6HR MAX TEMP:  82;

PINE BLUFFS    FAIR      64  32  29 S7        30.05S

$$



USA.gov is the U.S. government's official web portal to all federal, state and local government web resources and services.